[[{"header":{"parameterUnit":"m.s-1","parameterCategory":1,"la1":30.2992,"la2":30.254,"lo1":-89.0895,"lo2":-89.0443,"dy":0.0025,"dx":0.0025,"nx":19,"ny":19,"refTime":"2026-05-16T09:00:00:Z","depth":0,"parameterNumber":2,"parameterNumberName":"U-component_of_WINDS"},"data":[0,0,0,0.2762,0.2762,0.2758,0.2758,0.2759,0.2759,0,0,0,0,0,0,0,0,0,0,0,0.2768,0.2768,0.2762,0.2762,0.2758,0.2758,0.2759,0.2759,0,0,0,0,0,0,0,0,0,0,0,0.2768,0.2768,0.2768,0.2762,0.2758,0.2758,0.2759,0.276,0,0,0,0,0,0,0,0,0,0,0.2762,0.2773,0.2768,0.2768,0.2762,0.2758,0.2758,0.2759,0.2759,0.2764,0,0.277,0,0.2765,0.276,0.276,0,0,0,0.2758,0.2773,0.2768,0.2768,0.2762,0.2758,0.2758,0.2759,0.2759,0.2764,0.277,0.277,0.2765,0.276,0.276,0.2799,0.2799,0,0,0.2758,0.277,0.2768,0.2768,0.277,0.2759,0.2758,0.2759,0.2766,0.277,0.277,0.2765,0.276,0.276,0.2798,0.2799,0,0,0,0.2761,0.277,0.2764,0.2768,0.2767,0.2759,0.2758,0.2766,0.2763,0.277,0.2765,0.276,0.276,0.2798,0.2799,0.2827,0,0,0,0.2761,0.2772,0.2765,0.2772,0.2767,0.2767,0.2765,0.2763,0.2763,0.2765,0.276,0.276,0.2798,0.2798,0.2825,0.2838,0,0,0,0.2767,0.2773,0.2774,0.2773,0.2771,0.2766,0.2763,0.2763,0.276,0.276,0.276,0.2797,0.2798,0.2824,0.2836,0.2851,0,0,0,0.2776,0.28,0.2775,0.28,0.2771,0.2784,0.2763,0.2773,0.2776,0.276,0.2798,0.2799,0.2823,0.2834,0.2849,0.2865,0.2873,0,0,0.2813,0.2805,0.2819,0.2796,0.2817,0.2784,0.2808,0.28,0.279,0.2796,0.2797,0.2826,0.2836,0.285,0.2914,0.292,0,0,0,0.2835,0.2845,0.2848,0.2851,0.2845,0.284,0.2827,0.2824,0.2828,0.2796,0.2835,0.2841,0.2849,0.2856,0.2861,0.2867,0.2802,0.2802,0.2802,0.2906,0.289,0.2911,0.2894,0.2897,0.2882,0.2883,0.2876,0.286,0.2869,0.2871,0.2912,0.292,0.2924,0.293,0.2879,0.2879,0.2879,0.2879,0.2959,0.2969,0.2946,0.2958,0.2941,0.295,0.2936,0.2924,0.293,0.291,0.2916,0.2894,0.2931,0.2936,0.2881,0.2881,0.288,0.288,0.288,0.3002,0.3004,0.2999,0.3001,0.3003,0.2985,0.2991,0.2975,0.2961,0.2967,0.2966,0.2965,0.2962,0.2968,0.2968,0.2968,0.2968,0.2968,0.2968,0.3049,0.3042,0.3049,0.3044,0.3042,0.3038,0.3022,0.302,0.3014,0.3002,0.3002,0.2984,0.2938,0.2927,0.297,0.297,0.297,0.2969,0.2969,0.3107,0.3091,0.3102,0.3101,0.3091,0.3093,0.3073,0.307,0.3066,0.3069,0.3049,0.3018,0.3009,0.3005,0.2995,0.3053,0.3053,0.3053,0.3053,0.3143,0.3136,0.3143,0.3141,0.3138,0.312,0.3131,0.3118,0.3102,0.3098,0.3087,0.3073,0.3069,0.3062,0.3056,0.3047,0.3117,0.3117,0.3117,0.3177,0.3169,0.3182,0.3166,0.3156,0.3148,0.3158,0.3156,0.3135,0.312,0.3094,0.3091,0.3068,0.3062,0.3046,0.3038,0.302,0,0]},{"header":{"parameterUnit":"m.s-1","parameterCategory":1,"la1":30.2992,"la2":30.254,"lo1":-89.0895,"lo2":-89.0443,"dy":0.0025,"dx":0.0025,"nx":19,"ny":19,"refTime":"2026-05-16T09:00:00:Z","depth":0,"parameterNumber":3,"parameterNumberName":"V-component_of_WINDS"},"data":[0,0,0,4.9302,4.9304,4.9407,4.9407,4.9549,4.955,0,0,0,0,0,0,0,0,0,0,0,4.9281,4.9282,4.9302,4.9304,4.9407,4.9407,4.9549,4.955,0,0,0,0,0,0,0,0,0,0,0,4.928,4.9282,4.9283,4.9305,4.9407,4.9407,4.9548,4.9466,0,0,0,0,0,0,0,0,0,0,4.9365,4.9355,4.9281,4.9283,4.9306,4.9407,4.9407,4.9462,4.9472,4.9508,0,4.9544,0,4.955,4.9561,4.9561,0,0,0,4.9297,4.9348,4.9367,4.9284,4.9307,4.9407,4.9359,4.9467,4.9478,4.952,4.9546,4.9551,4.9552,4.9562,4.9562,4.9797,4.9798,0,0,4.9291,4.9304,4.936,4.9374,4.9362,4.9355,4.9362,4.9474,4.9502,4.9547,4.9554,4.9554,4.9563,4.9564,4.9795,4.9797,0,0,0,4.928,4.93,4.9316,4.9369,4.9386,4.9359,4.9366,4.9497,4.9502,4.9556,4.9556,4.9563,4.9565,4.9794,4.9796,4.9877,0,0,0,4.9276,4.9294,4.9314,4.9323,4.9385,4.9444,4.9388,4.9494,4.9506,4.9555,4.9564,4.9567,4.9792,4.9795,4.9872,4.9914,0,0,0,4.9271,4.9293,4.9311,4.9323,4.9368,4.9442,4.9452,4.9496,4.9507,4.9561,4.9567,4.9791,4.9794,4.9867,4.9906,4.9977,0,0,0,4.9268,4.9384,4.9313,4.9441,4.9367,4.9493,4.9451,4.9544,4.9601,4.9564,4.9792,4.9796,4.9865,4.99,4.9971,5.0038,5.0067,0,0,4.9421,4.9403,4.9478,4.9416,4.9557,4.9476,4.9628,4.9668,4.9662,4.9751,4.9757,4.9874,4.9905,4.9976,5.0231,5.0254,0,0,0,4.953,4.9584,4.9618,4.9672,4.9706,4.9736,4.9751,4.9765,4.984,4.9711,4.9919,4.9937,4.9978,5.0009,5.0029,5.0062,4.9811,4.9811,4.981,4.9765,4.9749,4.987,4.9865,4.9918,4.9931,4.9971,4.9991,4.9962,5.0011,5.0037,5.0194,5.0231,5.0245,5.028,5.0072,5.0072,5.0073,5.0073,4.9986,5.0057,5.0012,5.0113,5.0094,5.0178,5.0192,5.0167,5.024,5.0174,5.0209,5.0136,5.0272,5.03,5.0079,5.0078,5.0077,5.0077,5.0076,5.0136,5.0168,5.0182,5.0255,5.0313,5.0303,5.0374,5.0355,5.0338,5.0373,5.0396,5.0395,5.0388,5.0385,5.0386,5.0386,5.0387,5.0387,5.0388,5.0287,5.03,5.0363,5.0404,5.0433,5.047,5.048,5.0508,5.0534,5.0514,5.0514,5.0477,5.0289,5.0241,5.0396,5.0395,5.0393,5.0393,5.0392,5.0514,5.0458,5.0556,5.0585,5.0629,5.0684,5.0658,5.0716,5.0736,5.077,5.0725,5.059,5.057,5.0554,5.0514,5.073,5.073,5.073,5.073,5.064,5.0627,5.0719,5.0766,5.0811,5.0795,5.0901,5.0908,5.0907,5.0917,5.0883,5.0829,5.0814,5.0802,5.0781,5.0743,5.1013,5.1013,5.1014,5.0776,5.0766,5.0862,5.086,5.0891,5.0917,5.1015,5.1069,5.1056,5.1025,5.0924,5.0912,5.0824,5.0797,5.0764,5.0731,5.0661,0,0]}]]